Location: Sungai Dangang
(2.7500°N, 113.8333°E)
Time: 19:35:16
(UTC+00:00)

METEOR-M - Pass Details

Date: 16 May 2021
Orbit: 816 x 819 km, 98.5° (Epoch: 19 June)

Event Time Altitude Azimuth Distance (km) Brightness Sun altitude
Rises 20:51:45 0° 360° (N) 3,332 7.6 -20.0°
Reaches altitude 10° 20:54:11 10° 353° (N) 2,401 6.7 -19.5°
Maximum altitude 20:59:12 43° 283° (WNW) 1,128 4.5 -18.3°
Enters shadow 21:01:25 29° 232° (SW) 1,470 4.9 -17.8°
